Tracking 30918 objects as of 2-Jul-2025
HD Live streaming from Space Station
objects crossing your sky now

OBJECT BE

Track OBJECT BE now!
10-day predictions


NORAD ID: 43810
Int'l Code: 2018-099BE
Perigee: 544.4 km
Apogee: 557.6 km
Inclination: 97.4 °
Period: 95.5 minutes
Semi major axis: 6922 km
RCS: Unknown
Launch date: December 3, 2018
Source: (TBD)
Launch site: AIR FORCE WESTERN TEST RANGE (AFWTR)
Your satellite tracking list
THOR ABLESTAR DEB
Track 1 satellite(s)




NASA's NSSDC Master Catalog

Two Line Element Set (TLE):
1 43810U 18099BE  25182.92066688  .00002660  00000-0  17911-3 0  9992
2 43810  97.4387 229.3969 0009574 105.8382 254.3903 15.07492829359187
Source of the keplerian elements: AFSPC